Orbital Elements at Epoch 2459200.5 (2020-Dec-17.0) TDB
Reference: JPL 32 (heliocentric ecliptic J2000)
Element | Value | Uncertainty (1-sigma) | Units |
e | .1840632846372919 | 2.9991e-08 | |
a | 3.167245915311678 | 1.9592e-08 | au |
q | 2.584272228885364 | 9.4552e-08 | au |
i | 16.16829259336291 | 9.7074e-07 | deg |
node | 322.4468405063611 | 6.8289e-06 | deg |
peri | 216.8480293563831 | 1.0707e-05 | deg |
M | 184.2805851342007 | 1.12e-05 | deg |
tp | 2460205.435878049179 (2023-Sep-17.93587805) | 6.9654e-05 | TDB |
period | 2058.832920505689 5.64 | 1.9103e-05 5.23e-08 | d yr |
n | .1748563452694243 | 1.6224e-09 | deg/d |
Q | 3.750219601737992 | 2.3198e-08 | au |
|
| | Orbit Determination Parameters
Additional Information
|